Rochester, NH

8:00 PM EDT on April 29, 2017 (GMT -0400)
Skyhaven

Weather History for KDAW - May, 2013

Change the Weather History Date:

Friday, May 24, 2013

  Actual Average (KPSM) Record (KPSM)
Temperature  
Mean Temperature 61 °F -  
Max Temperature 72 °F 64 °F 93 °F (1991)
Min Temperature 50 °F 46 °F 32 °F (1990)
Degree Days  
Heating Degree Days 4    
Growing Degree Days 11 (Base 50)    
Moisture  
Dew Point 60 °F    
Average Humidity 89    
Maximum Humidity 100    
Minimum Humidity 72    
Precipitation  
Precipitation 0.26 in - - ()
Sea Level Pressure  
Sea Level Pressure 29.71 in    
Wind  
Wind Speed 5 mph (SSW)    
Max Wind Speed 12 mph    
Max Gust Speed 17 mph    
Visibility 7 miles    
Events Fog , Rain    
Averages and records for this station are not official NWS values.
T = Trace of Precipitation, MM = Missing Value Source: NWS Daily Summary

Daily Weather History Graph

Daily Weather History Graph

Search for Another Location

Airport or City:

Trip Planner

Search our weather history database for the weather conditions in past years. The results will help you decide how hot, cold, wet, or windy it might be!

Date:

Astronomy

May. 24, 2013 Rise Set
Actual Time 5:11 AM EDT 8:10 PM EDT
Civil Twilight 4:37 AM EDT 8:44 PM EDT
Nautical Twilight 3:54 AM EDT 9:27 PM EDT
Astronomical Twilight 3:03 AM EDT 10:19 PM EDT
Moon 7:48 PM EDT (5/24) 4:42 AM EDT (5/24)
Length of Visible Light 16h 06m
Length of Day
14h 59m
Full, 100% of the Moon is Illuminated
May 24
Full
May 25
Full
May 31
Last Quarter
Jun 8
New
Jun 16
First Quarter

Hourly Weather History & Observations

Time (EDT) Temp. Dew Point Humidity Pressure Visibility Wind Dir Wind Speed Gust Speed Precip Events Conditions
12:51 AM 64.9 °F 63.0 °F 93% 29.76 in 9.0 mi Variable 5.8 mph - N/A Rain Light Rain
1:51 AM 64.9 °F 63.0 °F 93% 29.75 in 9.0 mi South 8.1 mph - N/A Rain Light Rain
2:51 AM 64.9 °F 63.0 °F 93% 29.72 in 7.0 mi South 6.9 mph - N/A Rain Light Rain
3:51 AM 64.9 °F 63.0 °F 93% 29.70 in 7.0 mi South 8.1 mph - N/A Rain Light Rain
4:03 AM 64.4 °F 62.6 °F 94% 29.70 in 1.8 mi SSE 9.2 mph 16.1 mph N/A Rain Heavy Rain
4:13 AM 64.4 °F 62.6 °F 94% 29.70 in 3.0 mi South 5.8 mph 17.3 mph N/A Rain Rain
4:22 AM 64.4 °F 62.6 °F 94% 29.70 in 3.0 mi South 5.8 mph - N/A Rain Rain
4:31 AM 64.4 °F 62.6 °F 94% 29.69 in 2.0 mi South 6.9 mph - N/A Rain Heavy Rain
4:49 AM 64.4 °F 62.6 °F 94% 29.68 in 4.0 mi SE 5.8 mph - N/A Rain Rain
4:51 AM 64.0 °F 63.0 °F 96% 29.68 in 5.0 mi SE 5.8 mph - N/A Rain Light Rain
5:10 AM 62.6 °F 62.6 °F 100% 29.67 in 3.0 mi SSE 3.5 mph - N/A Rain Light Rain
5:51 AM 63.0 °F 61.0 °F 93% 29.65 in 4.0 mi SSE 4.6 mph - N/A   Overcast
5:58 AM 62.6 °F 62.6 °F 100% 29.65 in 1.8 mi SSE 4.6 mph - N/A   Overcast
6:11 AM 62.6 °F 60.8 °F 94% 29.64 in 0.8 mi SSE 3.5 mph - N/A Rain Light Rain
6:25 AM 62.6 °F 60.8 °F 94% 29.64 in 1.0 mi SSE 3.5 mph - N/A   Mist
6:51 AM 63.0 °F 61.0 °F 93% 29.63 in 2.0 mi SSE 3.5 mph - N/A   Overcast
7:01 AM 62.6 °F 60.8 °F 94% 29.64 in 1.0 mi Calm Calm - N/A   Overcast
7:09 AM 62.6 °F 60.8 °F 94% 29.64 in 0.5 mi Calm Calm - N/A Fog Fog
7:18 AM 62.6 °F 60.8 °F 94% 29.64 in 0.2 mi Calm Calm - N/A Fog Fog
7:51 AM 63.0 °F 62.1 °F 97% 29.64 in 0.2 mi Calm Calm - N/A Fog Fog
8:37 AM 64.4 °F 62.6 °F 94% 29.68 in 0.8 mi Variable 3.5 mph - N/A   Mist
8:44 AM 64.4 °F 62.6 °F 94% 29.68 in 2.0 mi South 4.6 mph - N/A   Overcast
8:51 AM 64.0 °F 63.0 °F 96% 29.67 in 10.0 mi Calm Calm - N/A   Overcast
9:15 AM 64.4 °F 64.4 °F 100% 29.69 in 10.0 mi Variable 3.5 mph - N/A   Overcast
9:47 AM 66.2 °F 64.4 °F 94% 29.69 in 10.0 mi Calm Calm - N/A Rain Light Rain
9:51 AM 66.9 °F 64.9 °F 93% 29.68 in 10.0 mi Calm Calm - N/A Rain Light Rain
10:06 AM 66.2 °F 64.4 °F 94% 29.69 in 10.0 mi Calm Calm - 0.00 in   Mostly Cloudy
10:29 AM 68.0 °F 64.4 °F 88% 29.69 in 10.0 mi Calm Calm - 0.00 in   Mostly Cloudy
10:51 AM 68.0 °F 64.9 °F 90% 29.69 in 10.0 mi Variable 3.5 mph - 0.00 in   Mostly Cloudy
11:01 AM 68.0 °F 64.4 °F 88% 29.70 in 10.0 mi Calm Calm - N/A   Overcast
11:21 AM 68.0 °F 64.4 °F 88% 29.70 in 10.0 mi Calm Calm - 0.00 in Rain Light Rain
11:43 AM 69.8 °F 64.4 °F 83% 29.70 in 10.0 mi Calm Calm - 0.00 in   Overcast
11:51 AM 70.0 °F 66.0 °F 87% 29.69 in 10.0 mi Calm Calm - 0.00 in   Overcast
11:58 AM 69.8 °F 64.4 °F 83% 29.70 in 10.0 mi South 4.6 mph - 0.00 in Rain Light Rain
12:30 PM 71.6 °F 64.4 °F 78% 29.70 in 10.0 mi Calm Calm - 0.00 in   Scattered Clouds
12:42 PM 71.6 °F 64.4 °F 78% 29.70 in 10.0 mi Calm Calm - 0.00 in   Mostly Cloudy
12:51 PM 71.1 °F 64.9 °F 81% 29.69 in 10.0 mi Calm Calm - 0.00 in   Mostly Cloudy
1:51 PM 71.1 °F 64.9 °F 81% 29.69 in 10.0 mi Variable 3.5 mph - 0.00 in Rain Light Rain
2:04 PM 71.6 °F 66.2 °F 83% 29.69 in 10.0 mi SSE 4.6 mph - 0.00 in Rain Light Rain
2:20 PM 69.8 °F 60.8 °F 73% 29.70 in 10.0 mi WNW 11.5 mph - 0.00 in   Mostly Cloudy
2:51 PM 64.9 °F 57.9 °F 78% 29.69 in 10.0 mi NW 9.2 mph - 0.00 in Rain Light Rain
3:51 PM 64.9 °F 59.0 °F 81% 29.70 in 10.0 mi NNW 8.1 mph - 0.00 in   Overcast
4:51 PM 64.0 °F 55.9 °F 75% 29.72 in 10.0 mi NW 9.2 mph - N/A   Overcast
5:51 PM 62.1 °F 54.0 °F 75% 29.73 in 10.0 mi NNW 8.1 mph - N/A   Overcast
6:01 PM 60.8 °F 51.8 °F 72% 29.75 in 10.0 mi NNW 9.2 mph - N/A   Overcast
6:51 PM 59.0 °F 50.0 °F 72% 29.75 in 10.0 mi NNW 10.4 mph - 0.00 in Rain Light Rain
7:51 PM 55.9 °F 52.0 °F 87% 29.78 in 10.0 mi NNW 5.8 mph - 0.00 in Rain Light Rain
8:51 PM 54.0 °F 50.0 °F 86% 29.79 in 4.0 mi North 8.1 mph 16.1 mph 0.07 in Rain Rain
9:40 PM 51.8 °F 50.0 °F 94% 29.81 in 6.0 mi NNW 6.9 mph - 0.08 in Rain Light Rain
9:51 PM 52.0 °F 50.0 °F 93% 29.81 in 10.0 mi NNW 9.2 mph - 0.08 in Rain Light Rain
10:00 PM 51.8 °F 48.2 °F 88% 29.82 in 10.0 mi NNW 8.1 mph - 0.01 in Rain Light Rain
10:37 PM 51.8 °F 48.2 °F 88% 29.82 in 3.0 mi NNW 8.1 mph - 0.08 in Rain Rain
10:51 PM 51.1 °F 48.9 °F 92% 29.81 in 6.0 mi North 8.1 mph - 0.09 in Rain Light Rain
11:02 PM 51.8 °F 48.2 °F 88% 29.82 in 4.0 mi NNW 8.1 mph - 0.00 in Rain Light Rain
11:51 PM 50.0 °F 48.0 °F 93% 29.82 in 4.0 mi North 8.1 mph - 0.02 in Rain Light Rain